This is the latest recevied weather packets stored in our database for station/object 9W2RUT-10. If no packets are shown the sender has not sent any weather packets the latest 10 day(s).
| Time | Temp. | Humidity | Pressure | Rain* | Wind** | Luminosity | Snow |
|---|---|---|---|---|---|---|---|
| 1777171531 | 36.11° C | 45% | 1013.8 hPa | - | - | - | - |
| 1777170927 | 34.44° C | 45% | 1013.9 hPa | - | - | - | - |
| 1777170323 | 33.33° C | 45% | 1013.8 hPa | - | - | - | - |
| 1777169719 | 31.67° C | 45% | 1013.5 hPa | - | - | - | - |
| 1777166597 | 32.22° C | 56% | 1013.5 hPa | - | - | - | - |
| 1777165993 | 31.67° C | 61% | 1013.1 hPa | - | - | - | - |
| 1777165389 | 30.56° C | 63% | 1012.7 hPa | - | - | - | - |
| 1777164785 | 29.44° C | 68% | 1012.6 hPa | - | - | - | - |
| 1777164181 | 28.33° C | 74% | 1013.1 hPa | - | - | - | - |
| 1777163577 | 26.67° C | 80% | 1012.6 hPa | - | - | - | - |
| 1777162973 | 26.11° C | 81% | 1013.4 hPa | - | - | - | - |
| 1777162369 | 25.56° C | 82% | 1013.1 hPa | - | - | - | - |
| 1777161765 | 25.56° C | 81% | 1013 hPa | - | - | - | - |
| 1777161161 | 25.56° C | 82% | 1012.7 hPa | - | - | - | - |
| 1777160557 | 25.56° C | 80% | 1012.3 hPa | - | - | - | - |
| 1777159953 | 27.22° C | 71% | 1012.3 hPa | - | - | - | - |
| 1777159348 | 27.22° C | 71% | 1012 hPa | - | - | - | - |
| 1777158744 | 27.22° C | 71% | 1012.5 hPa | - | - | - | - |
| 1777158141 | 27.22° C | 71% | 1011.9 hPa | - | - | - | - |
| 1777157537 | 27.22° C | 71% | 1011.9 hPa | - | - | - | - |
| 1777156933 | 27.22° C | 71% | 1012.1 hPa | - | - | - | - |
| 1777156329 | 27.22° C | 71% | 1011.5 hPa | - | - | - | - |
| 1777155725 | 27.22° C | 71% | 1011.5 hPa | - | - | - | - |
| 1777155121 | 27.22° C | 71% | 1011.3 hPa | - | - | - | - |
| 1777154517 | 27.22° C | 72% | 1011.4 hPa | - | - | - | - |
* Rain since midnight (hover to see other rain measurements)
** Current wind speed in m/s (hover to see current wind gust speed)